Wind_Speed
8 9 10 10 10 10 9 9 10 10 11 11 11 11 10 8 7 6 7 8 8 9 8 9 10 10 11 12 13 13 13 13 13 12 11 11 10 9 8 7 6 4 3 2 2 3 4 5 7
7 7 8 8 9 8 8 8 9 9 9 10 10 10 10 8 7 6 6 7 7 7 7 7 8 9 9 10 11 12 12 12 12 11 11 10 9 8 8 7 6 5 3 2 0 1 3 4 6
5 7 8 8 8 7 6 7 7 8 8 9 9 10 10 8 7 5 5 5 6 6 5 5 6 7 7 8 9 9 10 10 10 10 10 9 9 8 7 6 5 4 4 3 2 2 3 4 5
4 5 7 8 7 5 5 5 6 6 7 8 8 9 9 8 6 4 4 4 4 4 3 3 4 5 5 6 6 7 8 8 8 8 8 8 8 7 7 6 5 5 4 4 3 3 3 3 5
2 4 6 7 5 4 4 4 5 6 7 7 7 8 8 7 6 4 2 2 2 2 2 2 2 2 3 3 4 5 5 6 6 7 7 7 6 6 6 6 6 5 5 4 4 3 3 3 4
2 3 5 5 4 3 3 3 4 5 6 6 6 6 6 6 5 4 2 1 1 1 1 1 1 0 0 1 2 2 3 4 4 5 5 6 6 6 6 6 5 5 5 5 4 4 4 4 4
3 3 4 4 4 3 3 3 3 3 4 5 6 6 5 5 4 4 3 2 2 2 3 3 3 3 2 2 2 3 3 4 4 5 5 5 5 5 5 5 6 5 5 5 5 4 4 4 4
5 5 6 5 5 4 3 3 3 3 4 5 5 6 6 6 5 5 4 4 4 5 5 5 5 5 5 5 5 5 5 5 6 6 6 6 6 6 6 6 6 6 6 5 5 5 5 4 4
7 7 7 7 6 6 5 5 6 6 6 6 7 7 7 7 7 7 7 7 7 7 7 7 7 7 7 8 8 7 8 8 8 8 8 8 8 8 8 7 7 7 7 6 6 6 5 5 4
8 9 9 9 9 10 9 10 9 9 9 9 9 10 10 10 10 11 11 11 10 10 10 10 10 10 10 11 10 10 10 10 10 10 10 10 10 10 10 10 9 9 8 8 7 7 6 6 6
9 11 12 12 14 14 14 14 14 13 13 13 13 13 13 13 14 14 15 15 14 14 13 13 13 13 13 13 13 13 13 13 13 12 12 12 12 12 12 12 12 11 11 10 9 8 8 8 8
11 12 13 15 17 18 18 18 17 17 17 17 17 16 16 16 17 17 18 18 18 17 17 17 17 16 16 17 17 17 16 15 15 15 14 14 14 14 14 14 14 14 13 12 12 11 10 10 10
14 14 15 18 19 19 20 21 20 21 20 20 20 20 20 20 21 21 21 21 21 21 21 21 21 21 20 19 19 19 19 18 17 16 15 15 16 16 16 16 16 16 16 15 14 13 13 12 12
15 16 17 19 20 22 22 23 23 24 23 23 23 23 24 24 25 25 26 25 25 24 24 24 24 24 24 23 22 22 21 20 19 18 17 17 18 18 18 18 18 17 17 17 17 16 15 14 14
17 18 20 21 23 24 25 26 26 26 26 27 27 27 28 28 28 28 29 29 29 29 28 28 27 26 26 26 25 25 24 22 22 21 21 20 20 20 19 19 19 19 19 18 18 18 17 16 16
19 21 23 24 26 27 27 28 28 29 29 30 30 30 31 31 32 32 32 32 32 32 32 32 32 31 29 28 28 27 26 25 25 24 24 23 22 22 22 21 20 21 20 20 20 19 19 19 18
22 24 25 27 28 29 30 30 29 30 31 32 32 33 33 34 35 36 36 36 36 36 35 35 35 35 34 32 31 29 29 28 27 26 25 26 26 25 23 23 23 23 22 21 21 21 21 20 20
24 25 27 28 29 29 30 31 31 31 32 33 34 36 37 38 38 38 39 39 39 38 38 37 38 38 37 36 35 33 32 31 30 29 29 28 27 27 26 26 26 25 25 23 22 23 23 22 21
25 26 28 28 28 29 30 31 32 33 34 35 36 37 38 39 40 41 41 42 42 42 40 40 39 38 39 39 39 37 35 35 34 32 30 29 28 29 28 27 27 27 26 25 24 24 24 23 23
24 25 26 27 27 29 30 31 32 33 35 36 37 37 39 40 40 41 41 41 41 42 43 42 41 41 41 41 40 39 38 37 37 35 34 33 32 32 31 30 29 29 28 27 26 25 25 24 25
22 23 25 26 27 29 30 31 32 33 33 35 35 36 38 39 39 40 40 41 41 41 42 41 41 41 40 40 40 39 38 38 37 37 36 35 34 33 32 32 31 28 27 27 27 27 26 26 26
21 22 23 24 25 27 28 29 30 31 31 32 33 34 35 35 36 37 37 38 38 38 39 38 38 38 39 39 39 39 39 38 37 37 36 36 35 35 33 31 31 31 30 29 28 30 29 28 28
19 20 20 22 24 25 25 27 27 27 27 28 29 31 31 31 33 33 32 32 32 33 32 33 34 34 35 36 36 36 36 36 37 36 36 36 36 35 35 34 33 31 31 30 30 29 29 30 29
18 19 20 21 22 22 23 23 24 24 23 25 26 26 27 27 28 27 27 26 26 26 27 29 30 31 31 32 32 33 33 34 35 35 34 34 34 34 34 33 33 32 30 30 30 29 29 29 30
18 19 20 20 20 20 20 20 21 21 21 21 21 22 22 23 22 21 21 21 21 21 22 23 24 25 26 27 28 29 30 31 32 32 32 32 32 32 32 32 31 31 30 29 29 28 29 28 28
17 18 18 19 19 18 18 18 18 19 19 19 19 19 19 20 19 17 17 17 17 18 18 18 17 19 21 22 22 23 25 26 27 28 28 29 29 30 30 30 29 30 29 29 29 29 29 29 29
16 16 17 17 16 15 15 15 15 16 17 18 18 18 18 17 16 15 14 13 13 14 14 13 13 14 15 16 17 18 20 21 22 22 23 24 25 27 27 27 27 27 27 28 28 28 28 29 30
15 16 16 15 15 14 13 13 14 15 16 16 17 17 18 16 16 14 13 12 11 12 11 10 10 9 9 10 12 13 14 15 16 17 18 19 21 23 23 24 25 25 26 27 27 27 27 28 28
15 15 15 15 15 14 14 13 14 15 15 16 17 17 18 18 17 16 15 13 12 12 11 10 8 6 6 6 7 8 9 9 11 13 14 16 17 18 20 21 22 23 24 24 25 26 26 26 26
15 15 14 14 16 15 14 14 15 16 16 17 18 18 18 18 19 19 17 16 15 14 13 12 11 9 8 6 6 6 5 6 7 8 10 12 13 14 15 17 19 20 21 21 22 23 23 24 24
Wind_Direction
51 50 48 48 51 49 51 55 58 56 54 55 60 62 63 68 78 92 98 99 93 88 84 80 74 69 66 64 64 64 65 65 64 64 65 67 68 68 67 69 73 84 98 124 173 220 238 249 257
51 49 45 44 44 43 49 56 57 57 53 50 53 56 60 65 74 90 100 102 98 92 87 82 77 71 66 63 60 59 60 60 59 59 59 60 61 62 61 60 60 61 66 73 95 253 259 265 270
52 49 45 43 36 38 49 56 58 57 52 47 47 51 55 58 66 86 99 106 103 98 94 88 80 71 65 61 59 56 54 53 53 52 52 52 52 53 54 54 51 46 41 33 16 333 301 287 282
49 49 48 39 26 31 44 52 56 55 47 42 41 47 50 49 55 71 95 110 111 107 104 95 85 74 64 59 54 51 49 46 44 43 42 40 40 41 41 43 42 38 29 20 12 355 332 309 295
20 31 44 37 22 19 28 41 47 49 44 36 33 38 41 42 43 48 71 107 123 129 129 116 97 78 64 54 46 40 38 35 33 31 29 26 25 25 26 27 28 27 22 16 9 359 347 333 314
327 1 34 21 5 2 10 26 39 42 31 20 16 20 23 27 27 29 29 34 155 194 218 227 239 274 343 11 13 13 11 8 6 5 6 6 5 5 6 6 7 9 11 10 5 356 345 337 325
312 334 9 8 343 341 358 6 14 20 5 355 353 353 358 1 0 354 342 318 287 262 256 257 261 265 270 278 292 306 317 323 325 328 332 337 340 341 344 346 347 350 352 354 352 347 341 334 323
296 310 327 333 325 328 336 334 333 335 320 318 323 328 329 333 329 321 311 298 287 276 266 259 260 264 266 268 273 280 287 294 299 303 306 308 310 313 315 319 322 326 330 334 335 334 335 327 317
285 293 302 307 313 314 307 302 304 301 295 289 288 296 303 306 304 298 290 283 276 272 271 270 266 264 264 266 268 271 275 280 285 290 294 295 294 295 296 299 301 304 307 311 314 316 316 314 308
275 283 287 282 290 293 290 290 294 291 288 284 282 287 291 292 290 286 282 277 273 272 271 269 267 267 267 267 266 267 270 273 278 282 285 288 288 288 289 289 289 290 291 294 298 298 296 296 298
266 271 275 279 284 284 283 285 288 289 287 287 286 287 288 286 283 279 278 275 272 271 270 267 266 267 267 266 266 264 265 269 272 275 279 281 283 284 285 285 285 284 284 284 286 287 284 284 287
260 264 271 275 278 282 284 283 284 287 287 286 285 284 282 280 278 278 273 270 270 268 268 268 267 265 266 266 264 263 265 266 268 270 273 275 278 280 280 280 281 281 280 279 279 280 278 276 278
262 265 270 273 277 279 280 279 281 283 285 284 283 282 281 278 275 274 272 268 266 266 265 264 265 263 262 262 263 264 264 263 264 267 272 273 273 275 276 277 277 277 277 275 273 273 274 273 272
270 272 274 276 278 279 281 279 280 282 283 282 281 279 277 275 273 271 270 268 266 265 264 265 264 263 260 258 258 259 261 260 262 266 268 271 271 271 272 273 274 274 274 274 272 271 270 270 269
275 277 277 278 278 279 280 280 281 281 281 280 280 279 277 275 273 272 269 266 265 264 262 263 263 263 261 258 255 254 256 259 261 262 264 267 268 269 270 270 271 273 272 272 272 270 267 267 266
277 278 279 280 281 281 282 282 282 282 281 280 280 278 277 275 274 273 271 268 265 264 263 263 263 261 260 259 258 256 256 258 259 260 262 266 269 270 268 267 270 272 272 272 270 267 264 264 265
278 280 282 283 284 286 285 284 283 282 281 280 280 279 278 276 276 275 271 269 267 265 264 263 262 261 261 261 261 260 257 259 260 260 262 264 266 268 269 269 269 270 271 271 268 264 264 263 262
283 285 285 286 287 287 287 286 285 283 282 282 281 280 279 278 277 275 273 271 269 267 264 263 262 260 258 258 259 260 259 259 259 260 260 262 265 267 267 270 268 268 267 267 264 263 264 263 261
286 287 287 288 288 288 288 288 288 287 286 285 283 282 280 279 278 276 275 274 272 270 268 266 265 262 261 259 258 257 258 258 259 258 258 260 262 264 266 269 267 267 265 264 264 262 262 263 261
290 289 290 290 290 290 289 289 290 290 289 287 286 285 282 281 280 279 278 277 275 272 270 268 267 264 262 261 259 257 256 255 256 255 257 258 259 263 268 267 266 266 263 263 263 259 260 262 262
294 294 294 293 294 293 293 292 292 292 292 291 289 287 285 283 282 282 279 277 275 274 271 270 268 265 263 263 260 258 257 256 255 255 254 256 258 261 264 265 264 263 263 262 260 259 257 259 261
302 301 299 298 298 298 297 295 295 296 295 294 294 292 291 289 287 285 281 279 278 276 273 270 269 266 265 265 263 261 259 257 256 256 255 255 257 259 261 263 264 263 262 262 259 255 256 256 257
309 309 307 305 303 301 300 299 301 299 297 297 297 295 294 293 292 289 285 283 280 277 274 270 269 268 266 264 263 262 261 258 258 257 255 255 255 256 259 261 262 262 261 260 259 257 256 256 255
314 312 310 308 306 305 306 306 307 307 305 303 302 300 300 299 297 295 292 288 287 283 279 275 272 270 267 263 262 262 261 259 258 257 256 255 255 256 259 261 262 262 263 261 259 259 259 257 255
320 320 318 316 314 313 312 311 315 318 319 319 317 314 312 312 310 307 302 297 294 292 289 282 275 270 268 265 263 262 262 261 259 257 256 255 256 256 257 260 261 261 262 262 261 262 261 260 259
325 326 326 325 323 320 319 321 326 328 332 334 334 333 331 329 327 320 314 309 304 302 298 294 284 276 270 267 266 266 264 263 260 259 259 258 257 256 256 258 260 260 260 260 260 261 262 259 258
333 335 335 335 336 335 336 338 340 342 347 349 348 346 343 342 342 338 335 328 323 317 310 306 299 286 277 272 270 271 268 265 263 262 261 259 257 255 255 257 259 260 260 259 258 259 260 257 256
342 346 349 352 355 357 356 354 356 0 3 2 1 1 3 1 1 360 354 351 346 342 337 323 309 300 291 283 277 277 276 270 264 262 262 260 258 257 256 257 257 257 257 256 257 258 257 256 256
354 356 360 5 7 9 10 12 11 12 13 13 12 13 17 19 19 18 18 19 18 16 11 8 360 347 335 315 301 295 289 281 272 267 264 263 262 259 257 257 257 258 258 259 258 257 258 256 256
2 5 10 14 16 19 21 24 21 20 19 20 22 24 26 29 31 31 31 31 30 26 22 23 23 21 16 4 350 339 323 306 294 277 267 263 260 260 260 259 257 257 259 260 258 256 255 254 255
Height
5913 5913 5913 5914 5914 5913 5912 5911 5910 5910 5909 5909 5908 5908 5909 5909 5910 5912 5911 5909 5910 5910 5910 5910 5910 5910 5909 5908 5908 5907 5907 5907 5907 5907 5906 5906 5907 5907 5907 5907 5907 5908 5908 5908 5909 5910 5911 5911 5912
5914 5915 5916 5915 5914 5914 5914 5913 5912 5911 5911 5911 5910 5910 5910 5910 5910 5910 5910 5910 5911 5911 5911 5911 5911 5911 5910 5910 5909 5909 5909 5908 5908 5908 5908 5908 5908 5908 5908 5908 5908 5908 5908 5909 5909 5910 5910 5911 5911
5915 5915 5917 5916 5915 5915 5915 5914 5914 5913 5912 5912 5912 5912 5911 5911 5911 5911 5911 5911 5911 5912 5912 5912 5912 5912 5911 5911 5911 5910 5910 5910 5909 5909 5909 5909 5909 5909 5908 5908 5908 5908 5909 5909 5909 5909 5910 5910 5910
5916 5917 5917 5917 5916 5916 5916 5915 5915 5914 5913 5913 5913 5913 5912 5912 5912 5912 5912 5912 5912 5912 5913 5913 5912 5912 5912 5912 5911 5911 5911 5911 5911 5910 5910 5910 5910 5909 5909 5909 5909 5909 5909 5909 5909 5909 5909 5909 5909
5916 5917 5917 5917 5917 5917 5916 5916 5915 5914 5914 5914 5914 5914 5913 5913 5913 5913 5912 5912 5912 5913 5913 5913 5913 5913 5912 5912 5912 5912 5912 5911 5911 5911 5911 5911 5911 5910 5910 5910 5909 5909 5909 5909 5909 5909 5909 5909 5909
5917 5917 5917 5917 5918 5917 5917 5917 5916 5915 5915 5914 5915 5914 5914 5914 5913 5913 5913 5913 5913 5913 5913 5913 5913 5912 5912 5912 5912 5911 5911 5911 5911 5911 5911 5911 5911 5911 5910 5910 5910 5909 5909 5909 5908 5908 5908 5908 5908
5918 5917 5917 5917 5918 5918 5918 5917 5916 5916 5915 5915 5915 5915 5914 5914 5914 5913 5913 5913 5913 5912 5912 5912 5912 5912 5911 5911 5911 5911 5911 5911 5911 5911 5911 5910 5910 5910 5910 5910 5909 5909 5909 5908 5908 5908 5907 5907 5907
5916 5917 5916 5917 5917 5917 5917 5917 5916 5916 5915 5915 5915 5914 5914 5914 5913 5913 5913 5912 5912 5912 5911 5911 5910 5910 5910 5910 5910 5910 5909 5909 5909 5909 5909 5909 5909 5909 5909 5909 5909 5909 5908 5908 5908 5907 5907 5907 5906
5916 5917 5916 5916 5916 5916 5916 5916 5916 5915 5915 5914 5913 5913 5913 5912 5912 5912 5912 5911 5911 5910 5909 5909 5908 5908 5908 5908 5908 5908 5908 5907 5907 5907 5907 5907 5907 5907 5907 5907 5907 5907 5907 5907 5907 5906 5906 5906 5905
5916 5915 5915 5915 5915 5914 5914 5914 5914 5914 5913 5913 5912 5912 5911 5910 5910 5910 5909 5909 5908 5908 5907 5906 5906 5906 5905 5905 5905 5905 5905 5905 5905 5905 5905 5905 5905 5905 5905 5905 5905 5905 5905 5905 5905 5905 5905 5904 5904
5914 5914 5913 5913 5913 5913 5912 5912 5912 5911 5911 5911 5910 5910 5909 5908 5908 5907 5907 5906 5905 5905 5904 5903 5903 5903 5902 5902 5902 5902 5902 5902 5902 5902 5902 5902 5902 5902 5902 5903 5903 5903 5903 5903 5903 5903 5903 5902 5902
5912 5912 5911 5911 5910 5910 5910 5909 5909 5908 5908 5908 5907 5907 5906 5906 5905 5904 5903 5902 5902 5901 5900 5900 5899 5899 5899 5899 5898 5898 5898 5898 5898 5898 5898 5899 5899 5899 5899 5899 5900 5900 5900 5900 5900 5900 5900 5900 5900
5910 5910 5909 5909 5908 5907 5907 5906 5906 5905 5905 5904 5904 5903 5903 5902 5901 5900 5899 5898 5897 5896 5896 5895 5895 5894 5894 5894 5894 5894 5894 5894 5894 5894 5894 5894 5895 5895 5896 5896 5896 5896 5897 5897 5897 5897 5897 5897 5897
5908 5907 5907 5906 5905 5904 5904 5903 5902 5901 5900 5900 5899 5898 5898 5897 5895 5894 5893 5892 5892 5891 5890 5889 5889 5889 5889 5889 5889 5889 5889 5888 5889 5889 5889 5890 5890 5891 5891 5891 5892 5892 5892 5893 5893 5893 5893 5894 5894
5905 5905 5904 5903 5902 5900 5900 5899 5897 5896 5895 5894 5893 5892 5891 5890 5889 5888 5887 5886 5885 5885 5884 5883 5883 5882 5882 5882 5882 5882 5882 5882 5883 5884 5884 5884 5885 5885 5886 5886 5887 5887 5888 5888 5888 5889 5889 5890 5890
5903 5902 5900 5899 5897 5896 5897 5894 5892 5891 5890 5888 5887 5886 5884 5883 5882 5880 5879 5878 5877 5877 5876 5876 5876 5876 5876 5875 5875 5875 5876 5876 5877 5877 5878 5878 5879 5879 5880 5881 5881 5882 5882 5883 5883 5884 5885 5885 5886
5899 5898 5896 5894 5892 5891 5890 5888 5886 5885 5883 5881 5880 5878 5877 5875 5873 5872 5870 5869 5868 5868 5868 5867 5867 5867 5867 5868 5868 5869 5869 5870 5870 5871 5872 5872 5873 5873 5874 5875 5876 5876 5877 5878 5878 5879 5880 5880 5881
5895 5893 5891 5889 5887 5886 5883 5881 5879 5878 5876 5874 5872 5870 5868 5866 5864 5862 5861 5859 5858 5857 5857 5857 5858 5858 5859 5859 5860 5861 5862 5863 5864 5865 5865 5866 5866 5867 5867 5868 5869 5870 5871 5872 5873 5873 5874 5875 5876
5891 5888 5886 5884 5882 5880 5877 5875 5873 5870 5868 5865 5863 5861 5859 5856 5854 5852 5850 5849 5847 5847 5846 5846 5847 5848 5849 5850 5851 5852 5854 5855 5856 5857 5857 5858 5859 5860 5861 5862 5862 5863 5864 5865 5866 5867 5868 5869 5870
5886 5884 5881 5879 5876 5873 5870 5868 5865 5863 5860 5857 5854 5851 5849 5846 5844 5842 5840 5838 5836 5835 5835 5835 5835 5837 5838 5840 5841 5843 5844 5846 5847 5849 5849 5850 5851 5853 5854 5855 5855 5856 5857 5858 5859 5860 5862 5863 5864
5881 5879 5875 5873 5870 5867 5864 5862 5858 5855 5852 5849 5845 5842 5839 5836 5834 5831 5829 5827 5825 5824 5823 5824 5825 5826 5827 5829 5830 5833 5835 5836 5838 5840 5841 5842 5843 5845 5846 5847 5848 5849 5850 5851 5852 5854 5855 5856 5857
5877 5874 5870 5867 5864 5861 5859 5855 5852 5848 5845 5841 5837 5834 5830 5827 5824 5821 5818 5816 5814 5813 5813 5813 5814 5815 5816 5818 5820 5822 5824 5827 5828 5830 5832 5834 5835 5836 5837 5839 5840 5841 5842 5844 5845 5846 5847 5849 5850
5873 5869 5866 5863 5860 5856 5853 5850 5847 5842 5839 5835 5830 5826 5822 5819 5815 5812 5809 5806 5805 5804 5803 5803 5804 5805 5806 5807 5809 5812 5814 5816 5818 5820 5823 5825 5826 5828 5829 5831 5833 5834 5835 5837 5838 5838 5839 5841 5842
5870 5866 5863 5859 5855 5852 5848 5845 5841 5837 5833 5829 5824 5820 5816 5812 5808 5804 5801 5798 5797 5796 5795 5795 5795 5796 5797 5798 5800 5802 5804 5806 5808 5810 5813 5815 5817 5819 5821 5822 5824 5826 5827 5828 5830 5831 5832 5833 5834
5867 5864 5860 5856 5851 5848 5844 5840 5837 5832 5828 5824 5820 5815 5811 5806 5802 5799 5796 5793 5792 5790 5789 5788 5788 5788 5789 5790 5792 5793 5795 5797 5799 5801 5804 5806 5808 5810 5812 5814 5815 5817 5818 5820 5821 5822 5824 5825 5826
5864 5861 5858 5853 5848 5845 5841 5837 5834 5829 5825 5821 5816 5812 5808 5803 5799 5796 5793 5790 5788 5786 5784 5783 5782 5782 5783 5784 5785 5786 5788 5789 5791 5793 5795 5797 5799 5801 5803 5805 5807 5808 5810 5811 5813 5814 5815 5817 5818
5862 5858 5855 5851 5846 5842 5838 5835 5831 5827 5824 5819 5815 5810 5806 5802 5798 5794 5791 5788 5786 5784 5782 5780 5779 5778 5778 5779 5780 5780 5781 5782 5784 5785 5787 5789 5791 5793 5795 5797 5799 5800 5802 5803 5804 5806 5807 5808 5810
5861 5857 5853 5849 5845 5841 5837 5834 5831 5827 5823 5819 5815 5810 5806 5802 5798 5794 5791 5788 5786 5783 5780 5779 5777 5776 5776 5776 5776 5776 5776 5777 5778 5779 5781 5782 5784 5786 5787 5789 5791 5792 5794 5795 5797 5798 5799 5800 5802
5860 5856 5852 5848 5844 5841 5837 5836 5831 5827 5824 5820 5816 5812 5807 5803 5799 5795 5792 5789 5786 5784 5781 5779 5777 5776 5775 5774 5774 5773 5773 5773 5774 5775 5776 5777 5778 5779 5781 5782 5783 5785 5786 5787 5788 5790 5791 5792 5794
5859 5856 5853 5849 5845 5841 5838 5838 5832 5828 5825 5821 5817 5813 5809 5805 5801 5798 5794 5791 5788 5785 5782 5780 5778 5777 5775 5774 5773 5773 5772 5772 5772 5772 5772 5773 5773 5774 5775 5776 5777 5778 5779 5780 5781 5782 5784 5785 5787